YAOGAN-30 04A (43081 NORAD) Tracking and Keplerian Element Data

This shows tracking and keplerian element data for the satellite.

Feedback or suggestion? Click here.




ElementValue
Catalog43081
NameYAOGAN-30 04A
Epoch Orbit43578
Epoch Day354.17079726
Epoch Year2025
RAAN160.2953
Inclination34.9941
Eccentricity0.0004519
Argument of Perigee22.7418
Mean Anonmoly337.3489
Mean Motion15.01534522
Decay Rate1.908E-05
L11 43081U 17085A 25354.17079726 .00001908 00000+0 14666-3 0 9998
L22 43081 34.9941 160.2953 0004519 22.7418 337.3489 15.01534522435789



Live tracking and technical data element details for YAOGAN-30 04A (NORAD 43081). YAOGAN-30 04A can be tracked NOW for your location showing map with azimuth and elevation plus other details from your city location.







IsCatalogInMostPopularTable: catalog: 43081, numindb: 703
Update: records affected: 1



GetName: 43081 YAOGAN-30 04A

Hit Count: updated at: Thu, 21 May 2026 11:35:52 GMT